| time (UTC) | temp F | wind direction | speed knots | gust knots | rain 1hr in | rain 24hr in | rain mn in | humidity % | barometer mb |
| 20260507161122 | 78 | 357 | 3.5 | 5.2 | 0.00 | 0.00 | 0.00 | 21 | 1013.3 |
| 20260507160122 | 78 | 357 | 3.5 | 7.0 | 0.00 | 0.00 | 0.00 | 22 | 1013.3 |
| 20260507155122 | 77 | 359 | 4.3 | 7.0 | 0.00 | 0.00 | 0.00 | 23 | 1013.2 |
| 20260507154122 | 76 | 358 | 4.3 | 5.2 | 0.00 | 0.00 | 0.00 | 24 | 1013.4 |
| 20260507153122 | 76 | 0 | 3.5 | 7.0 | 0.00 | 0.00 | 0.00 | 25 | 1013.4 |
| 20260507152122 | 75 | 2 | 3.5 | 6.1 | 0.00 | 0.00 | 0.00 | 26 | 1013.4 |
| 20260507151122 | 74 | 3 | 4.3 | 7.0 | 0.00 | 0.00 | 0.00 | 28 | 1013.5 |
| 20260507150122 | 73 | 5 | 4.3 | 7.0 | 0.00 | 0.00 | 0.00 | 29 | 1013.4 |
| 20260507145122 | 72 | 0 | 4.3 | 7.0 | 0.00 | 0.00 | 0.00 | 29 | 1013.4 |
| 20260507144143 | 73 | 360 | 4.3 | 7.0 | 0.00 | 0.00 | 0.00 | 29 | 1013.3 |
| 20260507143122 | 75 | 16 | 3.5 | 7.8 | 0.00 | 0.00 | 0.00 | 26 | 1013.3 |
| 20260507142122 | 77 | 10 | 3.5 | 7.8 | 0.00 | 0.00 | 0.00 | 21 | 1013.3 |
| 20260507141122 | 72 | 2 | 2.6 | 5.2 | 0.00 | 0.00 | 0.00 | 29 | 1013.3 |
| 20260507140121 | 76 | 6 | 3.5 | 7.0 | 0.00 | 0.00 | 0.00 | 23 | 1013.3 |
| 20260507135121 | 72 | 31 | 3.5 | 8.7 | 0.00 | 0.00 | 0.00 | 27 | 1013.2 |
| 20260507134121 | 69 | 360 | 0.9 | 1.7 | 0.00 | 0.00 | 0.00 | 32 | 1013.0 |
| 20260507133121 | 69 | 26 | 0.9 | 1.7 | 0.00 | 0.00 | 0.00 | 32 | 1012.9 |
| 20260507132121 | 69 | 10 | 2.6 | 4.3 | 0.00 | 0.00 | 0.00 | 31 | 1012.9 |
| 20260507131121 | 69 | 6 | 1.7 | 3.5 | 0.00 | 0.00 | 0.00 | 30 | 1012.8 |
| 20260507130121 | 69 | 1 | 2.6 | 4.3 | 0.00 | 0.00 | 0.00 | 30 | 1012.8 |
| 20260507125142 | 70 | 0 | 4.3 | 7.0 | 0.00 | 0.00 | 0.00 | 28 | 1012.7 |
| 20260507124121 | 70 | 4 | 4.3 | 7.8 | 0.00 | 0.00 | 0.00 | 28 | 1012.7 |
| 20260507123121 | 69 | 3 | 4.3 | 9.6 | 0.00 | 0.00 | 0.00 | 29 | 1012.5 |
| 20260507122121 | 69 | 2 | 4.3 | 7.0 | 0.00 | 0.00 | 0.00 | 29 | 1012.6 |
| 20260507121121 | 70 | 0 | 4.3 | 7.0 | 0.00 | 0.00 | 0.00 | 29 | 1012.6 |
| 20260507120121 | 69 | 1 | 4.3 | 7.8 | 0.00 | 0.00 | 0.00 | 30 | 1012.6 |
| 20260507115142 | 69 | 2 | 5.2 | 7.8 | 0.00 | 0.00 | 0.00 | 30 | 1012.7 |
| 20260507114121 | 70 | 2 | 5.2 | 7.8 | 0.00 | 0.00 | 0.00 | 29 | 1012.6 |
| 20260507113121 | 70 | 360 | 5.2 | 8.7 | 0.00 | 0.00 | 0.00 | 28 | 1012.7 |
| 20260507112121 | 72 | 3 | 7.0 | 12.2 | 0.00 | 0.00 | 0.00 | 27 | 1012.8 |
| 20260507111142 | 71 | 3 | 6.1 | 10.4 | 0.00 | 0.00 | 0.00 | 28 | 1012.7 |
| 20260507110121 | 70 | 7 | 3.5 | 5.2 | 0.00 | 0.00 | 0.00 | 28 | 1012.8 |
| 20260507105121 | 69 | 8 | 3.5 | 7.0 | 0.00 | 0.00 | 0.00 | 29 | 1012.9 |
| 20260507104121 | 70 | 3 | 2.6 | 3.5 | 0.00 | 0.00 | 0.00 | 28 | 1012.9 |
| 20260507103121 | 71 | 4 | 3.5 | 5.2 | 0.00 | 0.00 | 0.00 | 27 | 1013.0 |
| 20260507102121 | 70 | 1 | 4.3 | 7.0 | 0.00 | 0.00 | 0.00 | 28 | 1013.1 |
| 20260507101121 | 67 | 3 | 4.3 | 7.0 | 0.00 | 0.00 | 0.00 | 30 | 1013.1 |
| 20260507100121 | 66 | 3 | 4.3 | 7.0 | 0.00 | 0.00 | 0.00 | 31 | 1013.3 |
| 20260507095121 | 67 | 3 | 3.5 | 5.2 | 0.00 | 0.00 | 0.00 | 30 | 1013.4 |
| 20260507094122 | 67 | 4 | 4.3 | 5.2 | 0.00 | 0.00 | 0.00 | 30 | 1013.4 |
| 20260507093143 | 66 | 7 | 4.3 | 6.1 | 0.00 | 0.00 | 0.00 | 32 | 1013.5 |
| 20260507092121 | 62 | 10 | 1.7 | 3.5 | 0.00 | 0.00 | 0.00 | 36 | 1013.7 |
| 20260507091121 | 62 | 9 | 0.9 | 2.6 | 0.00 | 0.00 | 0.00 | 35 | 1013.7 |
| 20260507090121 | 62 | 9 | 0.0 | 1.7 | 0.00 | 0.00 | 0.00 | 36 | 1013.7 |
| 20260507085121 | 63 | 9 | 0.0 | 0.0 | 0.00 | 0.00 | 0.00 | 35 | 1013.8 |
| 20260507084121 | 64 | 9 | 0.0 | 0.0 | 0.00 | 0.00 | 0.00 | 34 | 1013.9 |
| 20260507083121 | 64 | 9 | 1.7 | 2.6 | 0.00 | 0.00 | 0.00 | 34 | 1014.0 |
| 20260507082121 | 64 | 12 | 1.7 | 2.6 | 0.00 | 0.00 | 0.00 | 34 | 1014.1 |
| 20260507081121 | 65 | 10 | 0.9 | 1.7 | 0.00 | 0.00 | 0.00 | 33 | 1014.2 |
| 20260507080142 | 66 | 9 | 0.0 | 0.9 | 0.00 | 0.00 | 0.00 | 32 | 1014.3 |
| 20260507075121 | 67 | 5 | 1.7 | 2.6 | 0.00 | 0.00 | 0.00 | 31 | 1014.3 |
| 20260507074122 | 66 | 5 | 2.6 | 3.5 | 0.00 | 0.00 | 0.00 | 32 | 1014.3 |
| 20260507073121 | 66 | 1 | 2.6 | 3.5 | 0.00 | 0.00 | 0.00 | 31 | 1014.3 |
| 20260507072143 | 67 | 360 | 1.7 | 2.6 | 0.00 | 0.00 | 0.00 | 30 | 1014.3 |
| 20260507071121 | 68 | 357 | 2.6 | 3.5 | 0.00 | 0.00 | 0.00 | 29 | 1014.2 |
| 20260507070121 | 68 | 351 | 2.6 | 3.5 | 0.00 | 0.00 | 0.00 | 29 | 1014.3 |
| 20260507065121 | 69 | 358 | 2.6 | 3.5 | 0.00 | 0.00 | 0.00 | 28 | 1014.3 |
| 20260507064121 | 70 | 355 | 2.6 | 3.5 | 0.00 | 0.00 | 0.00 | 28 | 1014.3 |
| 20260507063121 | 69 | 358 | 2.6 | 3.5 | 0.00 | 0.00 | 0.00 | 28 | 1014.3 |
| 20260507062142 | 67 | 353 | 2.6 | 4.3 | 0.00 | 0.00 | 0.00 | 31 | 1014.2 |
| 20260507061121 | 66 | 360 | 2.6 | 2.6 | 0.00 | 0.00 | 0.00 | 31 | 1014.3 |
| 20260507060121 | 65 | 354 | 1.7 | 2.6 | 0.00 | 0.00 | 0.00 | 31 | 1014.3 |
| 20260507055121 | 67 | 335 | 0.9 | 1.7 | 0.00 | 0.00 | 0.00 | 30 | 1014.4 |
| 20260507054121 | 69 | 347 | 1.7 | 2.6 | 0.00 | 0.00 | 0.00 | 28 | 1014.3 |
| 20260507053121 | 68 | 352 | 3.5 | 4.3 | 0.00 | 0.00 | 0.00 | 29 | 1014.3 |
| 20260507052121 | 67 | 360 | 2.6 | 3.5 | 0.00 | 0.00 | 0.00 | 30 | 1014.3 |
| 20260507051121 | 67 | 360 | 1.7 | 2.6 | 0.00 | 0.00 | 0.00 | 30 | 1014.3 |
| 20260507050142 | 67 | 360 | 1.7 | 1.7 | 0.00 | 0.00 | 0.00 | 30 | 1014.3 |
| 20260507045121 | 67 | 360 | 0.9 | 1.7 | 0.00 | 0.00 | 0.00 | 29 | 1014.2 |
| 20260507044121 | 68 | 360 | 0.0 | 0.0 | 0.00 | 0.00 | 0.00 | 29 | 1014.2 |
| 20260507043121 | 68 | 360 | 0.9 | 1.7 | 0.00 | 0.00 | 0.00 | 28 | 1014.1 |
| 20260507042121 | 69 | 357 | 1.7 | 2.6 | 0.00 | 0.00 | 0.00 | 28 | 1014.0 |
| 20260507041121 | 69 | 360 | 1.7 | 2.6 | 0.00 | 0.00 | 0.00 | 27 | 1013.8 |
| 20260507040142 | 70 | 360 | 1.7 | 2.6 | 0.00 | 0.00 | 0.00 | 27 | 1013.7 |
| 20260507035122 | 70 | 348 | 1.7 | 2.6 | 0.00 | 0.00 | 0.00 | 27 | 1013.6 |
| 20260507034121 | 72 | 360 | 0.0 | 1.7 | 0.00 | 0.00 | 0.00 | 27 | 1013.5 |
| 20260507033121 | 74 | 360 | 0.0 | 1.7 | 0.00 | 0.00 | 0.00 | 25 | 1013.4 |
| 20260507032122 | 75 | 323 | 0.9 | 1.7 | 0.00 | 0.00 | 0.00 | 24 | 1013.2 |
| 20260507031142 | 76 | 328 | 1.7 | 2.6 | 0.00 | 0.00 | 0.00 | 23 | 1013.2 |
| 20260507030142 | 77 | 335 | 1.7 | 2.6 | 0.00 | 0.00 | 0.00 | 23 | 1013.0 |
| 20260507025121 | 77 | 350 | 1.7 | 3.5 | 0.00 | 0.00 | 0.00 | 23 | 1012.9 |
| 20260507024121 | 78 | 294 | 2.6 | 3.5 | 0.00 | 0.00 | 0.00 | 22 | 1012.8 |
| 20260507023121 | 78 | 357 | 2.6 | 5.2 | 0.00 | 0.00 | 0.00 | 22 | 1012.7 |
| 20260507022142 | 79 | 360 | 1.7 | 2.6 | 0.00 | 0.00 | 0.00 | 22 | 1012.6 |
| 20260507021121 | 79 | 360 | 2.6 | 5.2 | 0.00 | 0.00 | 0.00 | 22 | 1012.4 |
| 20260507020121 | 79 | 360 | 2.6 | 4.3 | 0.00 | 0.00 | 0.00 | 22 | 1012.6 |
| 20260507015122 | 80 | 352 | 4.3 | 7.0 | 0.00 | 0.00 | 0.00 | 21 | 1012.6 |
| 20260507014121 | 80 | 360 | 3.5 | 8.7 | 0.00 | 0.00 | 0.00 | 21 | 1012.4 |
| 20260507013122 | 80 | 359 | 4.3 | 5.2 | 0.00 | 0.00 | 0.00 | 21 | 1012.5 |
| 20260507012121 | 81 | 357 | 4.3 | 8.7 | 0.00 | 0.00 | 0.00 | 21 | 1012.4 |
| 20260507011121 | 81 | 359 | 3.5 | 6.1 | 0.00 | 0.00 | 0.00 | 21 | 1012.4 |
| 20260507010123 | 81 | 356 | 4.3 | 8.7 | 0.00 | 0.00 | 0.00 | 21 | 1012.4 |
| 20260507005121 | 81 | 352 | 5.2 | 8.7 | 0.00 | 0.00 | 0.00 | 21 | 1012.4 |
| 20260507004121 | 81 | 353 | 4.3 | 8.7 | 0.00 | 0.00 | 0.00 | 21 | 1012.5 |
| 20260507003142 | 81 | 354 | 4.3 | 7.8 | 0.00 | 0.00 | 0.00 | 21 | 1012.4 |
| 20260507002123 | 80 | 359 | 3.5 | 7.8 | 0.00 | 0.00 | 0.00 | 21 | 1012.4 |
| 20260507001121 | 82 | 360 | 3.5 | 6.1 | 0.00 | 0.00 | 0.00 | 21 | 1012.4 |
| 20260507000121 | 81 | 358 | 3.5 | 7.8 | 0.00 | 0.00 | 0.00 | 21 | 1012.4 |
| 20260506235144 | 82 | 356 | 6.1 | 10.4 | 0.00 | 0.00 | 0.00 | 20 | 1012.4 |
| 20260506234122 | 82 | 353 | 3.5 | 7.8 | 0.00 | 0.00 | 0.00 | 20 | 1012.5 |
| 20260506233121 | 81 | 356 | 7.8 | 12.2 | 0.00 | 0.00 | 0.00 | 20 | 1012.5 |
| 20260506232121 | 81 | 355 | 3.5 | 7.8 | 0.00 | 0.00 | 0.00 | 21 | 1012.6 |
| 20260506231121 | 82 | 356 | 6.1 | 11.3 | 0.00 | 0.00 | 0.00 | 21 | 1012.7 |
| 20260506230121 | 82 | 358 | 6.1 | 9.6 | 0.00 | 0.00 | 0.00 | 21 | 1012.6 |
| 20260506225121 | 82 | 356 | 5.2 | 8.7 | 0.00 | 0.00 | 0.00 | 20 | 1012.7 |
| 20260506224121 | 80 | 359 | 4.3 | 9.6 | 0.00 | 0.00 | 0.00 | 21 | 1013.0 |
| 20260506223121 | 81 | 356 | 6.1 | 11.3 | 0.00 | 0.00 | 0.00 | 21 | 1013.1 |
| 20260506222123 | 80 | 355 | 3.5 | 7.8 | 0.00 | 0.00 | 0.00 | 21 | 1013.2 |
| 20260506221121 | 81 | 356 | 7.8 | 12.2 | 0.00 | 0.00 | 0.00 | 21 | 1013.3 |
| 20260506220143 | 80 | 359 | 6.1 | 10.4 | 0.00 | 0.00 | 0.00 | 21 | 1013.5 |
| 20260506215122 | 80 | 352 | 5.2 | 11.3 | 0.00 | 0.00 | 0.00 | 21 | 1013.5 |
| 20260506214123 | 80 | 358 | 6.1 | 9.6 | 0.00 | 0.00 | 0.00 | 21 | 1013.7 |
| 20260506213122 | 81 | 358 | 5.2 | 11.3 | 0.00 | 0.00 | 0.00 | 21 | 1013.9 |
| 20260506212121 | 80 | 358 | 5.2 | 11.3 | 0.00 | 0.00 | 0.00 | 22 | 1014.0 |
| 20260506211143 | 79 | 359 | 5.2 | 10.4 | 0.00 | 0.00 | 0.00 | 22 | 1014.2 |
| 20260506210121 | 79 | 359 | 6.1 | 9.6 | 0.00 | 0.00 | 0.00 | 22 | 1014.3 |
| 20260506205122 | 78 | 357 | 4.3 | 8.7 | 0.00 | 0.00 | 0.00 | 22 | 1014.4 |
| 20260506204121 | 79 | 360 | 7.8 | 12.2 | 0.00 | 0.00 | 0.00 | 22 | 1014.6 |
| 20260506203122 | 79 | 359 | 7.0 | 11.3 | 0.00 | 0.00 | 0.00 | 22 | 1014.7 |
| 20260506202123 | 78 | 358 | 3.5 | 8.7 | 0.00 | 0.00 | 0.00 | 23 | 1014.7 |
| 20260506201122 | 77 | 355 | 6.1 | 9.6 | 0.00 | 0.00 | 0.00 | 23 | 1014.8 |
| 20260506200122 | 77 | 5 | 3.5 | 7.8 | 0.00 | 0.00 | 0.00 | 23 | 1014.9 |
| 20260506195146 | 77 | 360 | 2.6 | 8.7 | 0.00 | 0.00 | 0.00 | 24 | 1015.1 |
| 20260506194143 | 77 | 359 | 7.0 | 12.2 | 0.00 | 0.00 | 0.00 | 24 | 1015.2 |
| 20260506193121 | 77 | 18 | 2.6 | 5.2 | 0.00 | 0.00 | 0.00 | 24 | 1015.2 |
| 20260506192122 | 76 | 360 | 5.2 | 8.7 | 0.00 | 0.00 | 0.00 | 25 | 1015.5 |
| 20260506191121 | 76 | 355 | 5.2 | 8.7 | 0.00 | 0.00 | 0.00 | 25 | 1015.4 |
| 20260506190143 | 76 | 357 | 4.3 | 8.7 | 0.00 | 0.00 | 0.00 | 26 | 1015.5 |
| 20260506185142 | 76 | 2 | 7.0 | 13.9 | 0.00 | 0.00 | 0.00 | 26 | 1015.6 |
| 20260506184121 | 74 | 357 | 5.2 | 10.4 | 0.00 | 0.00 | 0.00 | 27 | 1015.6 |
| 20260506183122 | 74 | 351 | 4.3 | 7.8 | 0.00 | 0.00 | 0.00 | 27 | 1015.7 |
| 20260506182122 | 75 | 354 | 6.1 | 9.6 | 0.00 | 0.00 | 0.00 | 27 | 1015.9 |
| 20260506181122 | 74 | 359 | 3.5 | 7.0 | 0.00 | 0.00 | 0.00 | 28 | 1015.8 |
| 20260506180122 | 74 | 359 | 5.2 | 10.4 | 0.00 | 0.00 | 0.00 | 28 | 1016.0 |
| 20260506175122 | 72 | 351 | 3.5 | 5.2 | 0.00 | 0.00 | 0.00 | 30 | 1016.1 |
| 20260506174122 | 73 | 357 | 4.3 | 7.8 | 0.00 | 0.00 | 0.00 | 30 | 1016.2 |
| 20260506173125 | 73 | 352 | 4.3 | 7.8 | 0.00 | 0.00 | 0.00 | 30 | 1016.2 |
| 20260506172122 | 71 | 299 | 2.6 | 7.0 | 0.00 | 0.00 | 0.00 | 32 | 1016.1 |
| 20260506171121 | 72 | 345 | 3.5 | 7.0 | 0.00 | 0.00 | 0.00 | 31 | 1016.2 |
| 20260506170122 | 71 | 355 | 2.6 | 7.0 | 0.00 | 0.00 | 0.00 | 33 | 1016.1 |
| 20260506165121 | 71 | 354 | 4.3 | 8.7 | 0.00 | 0.00 | 0.00 | 33 | 1016.1 |
| 20260506164439 | 70 | 351 | 3.5 | 7.0 | 0.00 | 0.00 | 0.00 | 33 | 1016.1 |
| 20260506162142 | 69 | 347 | 1.7 | 7.8 | 0.00 | 0.00 | 0.00 | 34 | 1015.9 |